Location: *
(50.2903°S, 172.5375°W)
Time: 08:09:03
(UTC+00:00)

Cosmos 2218 Rocket - Pass Details

Date: 17 November 2019
Orbit: 955 x 1006 km, 82.9° (Epoch: 14 December)

Event Time Altitude Azimuth Distance (km) Brightness Sun altitude
Rises 13:13:26 0° 192° (SSW) 3,779 7.9 -16.0°
Reaches altitude 10° 13:16:02 10° 195° (SSW) 2,821 7.1 -15.8°
Maximum altitude 13:22:24 61° 273° (W) 1,149 4.2 -15.2°
Enters shadow 13:27:01 19° 347° (NNW) 2,184 5.3 -14.9°
